| time (UTC) | temp F | wind direction | speed MPH | gust MPH | rain 1hr in | rain 24hr in | rain mn in | humidity % | barometer mb |
| 20260902222529 | 83 | 360 | 4.0 | 8.0 | 0.00 | 0.00 | 0.00 | 39 | 1013.1 |
| 20260902222028 | 83 | 360 | 4.0 | 8.0 | 0.00 | 0.00 | 0.00 | 39 | 1013.1 |
| 20260902221547 | 83 | 360 | 4.0 | 6.0 | 0.00 | 0.00 | 0.00 | 39 | 1013.2 |
| 20260902221027 | 83 | 0 | 1.0 | 4.0 | 0.00 | 0.00 | 0.00 | 39 | 1013.2 |
| 20260902220523 | 83 | 360 | 1.0 | 4.0 | 0.00 | 0.00 | 0.00 | 39 | 1013.2 |
| 20260902220051 | 83 | 360 | 1.0 | 6.0 | 0.00 | 0.00 | 0.00 | 39 | 1013.2 |
| 20260902215526 | 83 | 360 | 1.0 | 6.0 | 0.00 | 0.00 | 0.00 | 39 | 1013.2 |
| 20260902215025 | 83 | 360 | 2.0 | 6.0 | 0.00 | 0.00 | 0.00 | 39 | 1013.2 |
| 20260902214544 | 84 | 360 | 2.0 | 5.0 | 0.00 | 0.00 | 0.00 | 38 | 1013.3 |
| 20260902214023 | 84 | 360 | 1.0 | 3.0 | 0.00 | 0.00 | 0.00 | 38 | 1013.3 |
| 20260902213523 | 84 | 360 | 1.0 | 3.0 | 0.00 | 0.00 | 0.00 | 38 | 1013.4 |
| 20260902213047 | 84 | 360 | 0.0 | 4.0 | 0.00 | 0.00 | 0.00 | 38 | 1013.3 |
| 20260902212525 | 84 | 360 | 1.0 | 8.0 | 0.00 | 0.00 | 0.00 | 37 | 1013.4 |
| 20260902212026 | 84 | 360 | 2.0 | 8.0 | 0.00 | 0.00 | 0.00 | 37 | 1013.4 |
| 20260902211545 | 85 | 360 | 3.0 | 11.0 | 0.00 | 0.00 | 0.00 | 37 | 1013.3 |
| 20260902211028 | 85 | 360 | 4.0 | 11.0 | 0.00 | 0.00 | 0.00 | 37 | 1013.5 |
| 20260902210527 | 85 | 360 | 5.0 | 11.0 | 0.00 | 0.00 | 0.00 | 37 | 1013.4 |
| 20260902210039 | 85 | 360 | 6.0 | 11.0 | 0.00 | 0.00 | 0.00 | 37 | 1013.4 |
| 20260902205525 | 85 | 360 | 4.0 | 11.0 | 0.00 | 0.00 | 0.00 | 37 | 1013.5 |
| 20260902205025 | 85 | 360 | 4.0 | 11.0 | 0.00 | 0.00 | 0.00 | 37 | 1013.4 |
| 20260902204553 | 85 | 360 | 4.0 | 11.0 | 0.00 | 0.00 | 0.00 | 37 | 1013.4 |
| 20260902204026 | 85 | 360 | 3.0 | 9.0 | 0.00 | 0.00 | 0.00 | 37 | 1013.5 |
| 20260902203525 | 85 | 360 | 1.0 | 5.0 | 0.00 | 0.00 | 0.00 | 36 | 1013.5 |
| 20260902203046 | 85 | 360 | 2.0 | 5.0 | 0.00 | 0.00 | 0.00 | 36 | 1013.5 |
| 20260902202526 | 84 | 360 | 2.0 | 5.0 | 0.00 | 0.00 | 0.00 | 37 | 1013.5 |
| 20260902202025 | 85 | 0 | 0.0 | 0.0 | 0.00 | 0.00 | 0.00 | 37 | 1013.5 |
| 20260902201604 | 84 | 0 | 0.0 | 0.0 | 0.00 | 0.00 | 0.00 | 37 | 1013.5 |
| 20260902201025 | 84 | 0 | 0.0 | 3.0 | 0.00 | 0.00 | 0.00 | 36 | 1013.5 |
| 20260902200527 | 85 | 0 | 0.0 | 3.0 | 0.00 | 0.00 | 0.00 | 36 | 1013.5 |
| 20260902200047 | 85 | 360 | 1.0 | 5.0 | 0.00 | 0.00 | 0.00 | 36 | 1013.6 |
| 20260902195525 | 85 | 360 | 1.0 | 5.0 | 0.00 | 0.00 | 0.00 | 36 | 1013.5 |
| 20260902195027 | 85 | 360 | 2.0 | 5.0 | 0.00 | 0.00 | 0.00 | 36 | 1013.6 |
| 20260902194550 | 85 | 360 | 1.0 | 4.0 | 0.00 | 0.00 | 0.00 | 36 | 1013.5 |
| 20260902194029 | 85 | 360 | 1.0 | 5.0 | 0.00 | 0.00 | 0.00 | 36 | 1013.6 |
| 20260902193525 | 85 | 0 | 1.0 | 5.0 | 0.00 | 0.00 | 0.00 | 36 | 1013.6 |
| 20260902193045 | 85 | 360 | 2.0 | 5.0 | 0.00 | 0.00 | 0.00 | 36 | 1013.6 |
| 20260902192525 | 85 | 360 | 3.0 | 4.0 | 0.00 | 0.00 | 0.00 | 35 | 1013.6 |
| 20260902192026 | 85 | 360 | 1.0 | 4.0 | 0.00 | 0.00 | 0.00 | 36 | 1013.7 |
| 20260902191543 | 85 | 360 | 1.0 | 3.0 | 0.00 | 0.00 | 0.00 | 35 | 1013.7 |
| 20260902191025 | 85 | 0 | 1.0 | 3.0 | 0.00 | 0.00 | 0.00 | 36 | 1013.6 |
| 20260902190525 | 85 | 360 | 1.0 | 3.0 | 0.00 | 0.00 | 0.00 | 36 | 1013.5 |
| 20260902190051 | 85 | 0 | 0.0 | 4.0 | 0.00 | 0.00 | 0.00 | 35 | 1013.6 |
| 20260902185527 | 86 | 360 | 1.0 | 4.0 | 0.00 | 0.00 | 0.00 | 36 | 1013.6 |
| 20260902185026 | 86 | 360 | 1.0 | 8.0 | 0.00 | 0.00 | 0.00 | 35 | 1013.6 |
| 20260902184605 | 86 | 360 | 2.0 | 8.0 | 0.00 | 0.00 | 0.00 | 35 | 1013.6 |
| 20260902184027 | 86 | 360 | 2.0 | 10.0 | 0.00 | 0.00 | 0.00 | 35 | 1013.6 |
| 20260902183524 | 86 | 360 | 2.0 | 14.0 | 0.00 | 0.00 | 0.00 | 35 | 1013.5 |
| 20260902183041 | 86 | 360 | 5.0 | 14.0 | 0.00 | 0.00 | 0.00 | 35 | 1013.5 |
| 20260902182526 | 86 | 360 | 7.0 | 14.0 | 0.00 | 0.00 | 0.00 | 35 | 1013.5 |
| 20260902182028 | 86 | 360 | 5.0 | 11.0 | 0.00 | 0.00 | 0.00 | 35 | 1013.4 |
| 20260902181545 | 86 | 360 | 4.0 | 13.0 | 0.00 | 0.00 | 0.00 | 35 | 1013.4 |
| 20260902181027 | 86 | 360 | 6.0 | 13.0 | 0.00 | 0.00 | 0.00 | 35 | 1013.3 |
| 20260902180527 | 86 | 360 | 3.0 | 12.0 | 0.00 | 0.00 | 0.00 | 35 | 1013.4 |
| 20260902180042 | 86 | 360 | 5.0 | 12.0 | 0.00 | 0.00 | 0.00 | 35 | 1013.4 |
| 20260902175527 | 85 | 360 | 6.0 | 12.0 | 0.00 | 0.00 | 0.00 | 36 | 1013.5 |
| 20260902175027 | 85 | 0 | 1.0 | 5.0 | 0.00 | 0.00 | 0.00 | 36 | 1013.4 |
| 20260902174547 | 85 | 360 | 2.0 | 4.0 | 0.00 | 0.00 | 0.00 | 36 | 1013.4 |
| 20260902174027 | 85 | 0 | 0.0 | 6.0 | 0.00 | 0.00 | 0.00 | 36 | 1013.4 |
| 20260902173526 | 85 | 360 | 1.0 | 6.0 | 0.00 | 0.00 | 0.00 | 36 | 1013.5 |
| 20260902173046 | 85 | 360 | 4.0 | 6.0 | 0.00 | 0.00 | 0.00 | 36 | 1013.3 |
| 20260902172527 | 86 | 360 | 2.0 | 5.0 | 0.00 | 0.00 | 0.00 | 36 | 1013.3 |
| 20260902172028 | 86 | 0 | 0.0 | 5.0 | 0.00 | 0.00 | 0.00 | 36 | 1013.2 |
| 20260902171540 | 86 | 360 | 1.0 | 5.0 | 0.00 | 0.00 | 0.00 | 36 | 1013.2 |
| 20260902171028 | 86 | 339 | 2.0 | 5.0 | 0.00 | 0.00 | 0.00 | 35 | 1013.1 |
| 20260902170528 | 86 | 360 | 3.0 | 5.0 | 0.00 | 0.00 | 0.00 | 35 | 1013.1 |
| 20260902170039 | 86 | 321 | 3.0 | 5.0 | 0.00 | 0.00 | 0.00 | 35 | 1013.1 |
| 20260902165524 | 87 | 331 | 1.0 | 5.0 | 0.00 | 0.00 | 0.00 | 35 | 1013.2 |
| 20260902165028 | 87 | 0 | 2.0 | 9.0 | 0.00 | 0.00 | 0.00 | 35 | 1013.2 |
| 20260902164550 | 87 | 325 | 2.0 | 11.0 | 0.00 | 0.00 | 0.00 | 35 | 1013.2 |
| 20260902164024 | 87 | 319 | 5.0 | 11.0 | 0.00 | 0.00 | 0.00 | 35 | 1013.2 |
| 20260902163524 | 88 | 317 | 5.0 | 11.0 | 0.00 | 0.00 | 0.00 | 34 | 1013.2 |
| 20260902163044 | 88 | 11 | 2.0 | 11.0 | 0.00 | 0.00 | 0.00 | 34 | 1013.3 |
| 20260902162524 | 88 | 0 | 1.0 | 11.0 | 0.00 | 0.00 | 0.00 | 34 | 1013.2 |
| 20260902162026 | 89 | 14 | 3.0 | 9.0 | 0.00 | 0.00 | 0.00 | 34 | 1013.3 |
| 20260902161542 | 89 | 50 | 3.0 | 9.0 | 0.00 | 0.00 | 0.00 | 34 | 1013.4 |
| 20260902161028 | 89 | 0 | 2.0 | 4.0 | 0.00 | 0.00 | 0.00 | 33 | 1013.3 |
| 20260902160530 | 89 | 26 | 2.0 | 8.0 | 0.00 | 0.00 | 0.00 | 33 | 1013.4 |
| 20260902160046 | 89 | 92 | 1.0 | 8.0 | 0.00 | 0.00 | 0.00 | 33 | 1013.4 |
| 20260902155525 | 89 | 360 | 3.0 | 8.0 | 0.00 | 0.00 | 0.00 | 33 | 1013.4 |
| 20260902155026 | 89 | 323 | 2.0 | 8.0 | 0.00 | 0.00 | 0.00 | 33 | 1013.4 |
| 20260902154541 | 89 | 348 | 4.0 | 8.0 | 0.00 | 0.00 | 0.00 | 33 | 1013.4 |
| 20260902154026 | 90 | 58 | 3.0 | 8.0 | 0.00 | 0.00 | 0.00 | 33 | 1013.4 |
| 20260902153527 | 90 | 25 | 2.0 | 9.0 | 0.00 | 0.00 | 0.00 | 33 | 1013.3 |
| 20260902153046 | 90 | 360 | 3.0 | 10.0 | 0.00 | 0.00 | 0.00 | 33 | 1013.3 |
| 20260902152526 | 90 | 28 | 4.0 | 11.0 | 0.00 | 0.00 | 0.00 | 33 | 1013.4 |
| 20260902152026 | 90 | 5 | 4.0 | 11.0 | 0.00 | 0.00 | 0.00 | 33 | 1013.5 |
| 20260902151552 | 90 | 326 | 4.0 | 11.0 | 0.00 | 0.00 | 0.00 | 32 | 1013.4 |
| 20260902151026 | 90 | 351 | 4.0 | 12.0 | 0.00 | 0.00 | 0.00 | 33 | 1013.5 |
| 20260902150526 | 90 | 40 | 6.0 | 12.0 | 0.00 | 0.00 | 0.00 | 32 | 1013.5 |
| 20260902150044 | 90 | 355 | 5.0 | 13.0 | 0.00 | 0.00 | 0.00 | 32 | 1013.4 |
| 20260902145525 | 90 | 327 | 8.0 | 13.0 | 0.00 | 0.00 | 0.00 | 32 | 1013.4 |
| 20260902145028 | 90 | 47 | 8.0 | 15.0 | 0.00 | 0.00 | 0.00 | 31 | 1013.5 |
| 20260902144540 | 90 | 23 | 8.0 | 15.0 | 0.00 | 0.00 | 0.00 | 32 | 1013.4 |
| 20260902144026 | 90 | 360 | 9.0 | 16.0 | 0.00 | 0.00 | 0.00 | 32 | 1013.4 |
| 20260902143527 | 90 | 5 | 9.0 | 16.0 | 0.00 | 0.00 | 0.00 | 32 | 1013.6 |
| 20260902143050 | 90 | 16 | 8.0 | 18.0 | 0.00 | 0.00 | 0.00 | 32 | 1013.5 |
| 20260902142527 | 90 | 38 | 8.0 | 18.0 | 0.00 | 0.00 | 0.00 | 31 | 1013.6 |
| 20260902142027 | 90 | 34 | 10.0 | 17.0 | 0.00 | 0.00 | 0.00 | 31 | 1013.6 |
| 20260902141546 | 90 | 52 | 8.0 | 18.0 | 0.00 | 0.00 | 0.00 | 31 | 1013.6 |
| 20260902141025 | 90 | 19 | 11.0 | 18.0 | 0.00 | 0.00 | 0.00 | 31 | 1013.7 |
| 20260902140524 | 90 | 19 | 10.0 | 19.0 | 0.00 | 0.00 | 0.00 | 31 | 1013.8 |
| 20260902140039 | 90 | 28 | 12.0 | 19.0 | 0.00 | 0.00 | 0.00 | 31 | 1013.8 |
| 20260902135526 | 91 | 352 | 9.0 | 18.0 | 0.00 | 0.00 | 0.00 | 31 | 1013.8 |
| 20260902135026 | 91 | 40 | 9.0 | 18.0 | 0.00 | 0.00 | 0.00 | 31 | 1013.8 |
| 20260902134544 | 91 | 19 | 6.0 | 14.0 | 0.00 | 0.00 | 0.00 | 30 | 1013.9 |
| 20260902134027 | 91 | 59 | 8.0 | 14.0 | 0.00 | 0.00 | 0.00 | 31 | 1013.9 |
| 20260902133528 | 91 | 48 | 7.0 | 19.0 | 0.00 | 0.00 | 0.00 | 30 | 1014.0 |
| 20260902133046 | 91 | 66 | 9.0 | 19.0 | 0.00 | 0.00 | 0.00 | 30 | 1013.9 |
| 20260902132532 | 91 | 80 | 10.0 | 17.0 | 0.00 | 0.00 | 0.00 | 30 | 1013.9 |
| 20260902132026 | 92 | 24 | 3.0 | 13.0 | 0.00 | 0.00 | 0.00 | 30 | 1014.0 |
| 20260902131544 | 92 | 54 | 5.0 | 16.0 | 0.00 | 0.00 | 0.00 | 30 | 1013.9 |
| 20260902131027 | 91 | 55 | 10.0 | 16.0 | 0.00 | 0.00 | 0.00 | 30 | 1014.0 |
| 20260902130530 | 91 | 360 | 9.0 | 17.0 | 0.00 | 0.00 | 0.00 | 31 | 1014.1 |
| 20260902130039 | 91 | 360 | 9.0 | 17.0 | 0.00 | 0.00 | 0.00 | 30 | 1014.2 |
| 20260902125526 | 91 | 64 | 8.0 | 18.0 | 0.00 | 0.00 | 0.00 | 30 | 1014.0 |
| 20260902125028 | 92 | 57 | 10.0 | 18.0 | 0.00 | 0.00 | 0.00 | 29 | 1014.2 |
| 20260902124545 | 92 | 44 | 7.0 | 18.0 | 0.00 | 0.00 | 0.00 | 29 | 1014.1 |
| 20260902124025 | 92 | 355 | 8.0 | 17.0 | 0.00 | 0.00 | 0.00 | 29 | 1014.2 |
| 20260902123525 | 92 | 19 | 7.0 | 18.0 | 0.00 | 0.00 | 0.00 | 29 | 1014.3 |
| 20260902123044 | 92 | 28 | 8.0 | 19.0 | 0.00 | 0.00 | 0.00 | 29 | 1014.3 |
| 20260902122527 | 92 | 22 | 12.0 | 19.0 | 0.00 | 0.00 | 0.00 | 29 | 1014.3 |
| 20260902122030 | 92 | 55 | 7.0 | 17.0 | 0.00 | 0.00 | 0.00 | 29 | 1014.3 |
| 20260902121544 | 92 | 33 | 7.0 | 18.0 | 0.00 | 0.00 | 0.00 | 29 | 1014.4 |
| 20260902121026 | 92 | 25 | 11.0 | 18.0 | 0.00 | 0.00 | 0.00 | 29 | 1014.3 |
| 20260902120527 | 92 | 349 | 10.0 | 20.0 | 0.00 | 0.00 | 0.00 | 29 | 1014.5 |
| 20260902120049 | 92 | 21 | 9.0 | 20.0 | 0.00 | 0.00 | 0.00 | 28 | 1014.5 |
| 20260902115526 | 92 | 69 | 5.0 | 16.0 | 0.00 | 0.00 | 0.00 | 29 | 1014.5 |
| 20260902115026 | 92 | 32 | 10.0 | 18.0 | 0.00 | 0.00 | 0.00 | 28 | 1014.5 |
| 20260902114546 | 93 | 65 | 6.0 | 18.0 | 0.00 | 0.00 | 0.00 | 29 | 1014.5 |
| 20260902114028 | 93 | 360 | 6.0 | 20.0 | 0.00 | 0.00 | 0.00 | 29 | 1014.6 |
| 20260902113526 | 92 | 355 | 10.0 | 21.0 | 0.00 | 0.00 | 0.00 | 29 | 1014.5 |
| 20260902113043 | 92 | 65 | 9.0 | 21.0 | 0.00 | 0.00 | 0.00 | 29 | 1014.6 |
| 20260902112527 | 92 | 32 | 11.0 | 24.0 | 0.00 | 0.00 | 0.00 | 29 | 1014.6 |
| 20260902112024 | 92 | 11 | 12.0 | 24.0 | 0.00 | 0.00 | 0.00 | 28 | 1014.6 |
| 20260902111541 | 92 | 360 | 12.0 | 22.0 | 0.00 | 0.00 | 0.00 | 28 | 1014.6 |
| 20260902111025 | 92 | 31 | 12.0 | 22.0 | 0.00 | 0.00 | 0.00 | 28 | 1014.7 |
| 20260902110525 | 92 | 67 | 8.0 | 23.0 | 0.00 | 0.00 | 0.00 | 27 | 1014.7 |
| 20260902110044 | 92 | 70 | 11.0 | 23.0 | 0.00 | 0.00 | 0.00 | 27 | 1014.7 |
| 20260902105526 | 92 | 44 | 14.0 | 24.0 | 0.00 | 0.00 | 0.00 | 27 | 1014.7 |
| 20260902105024 | 92 | 5 | 15.0 | 24.0 | 0.00 | 0.00 | 0.00 | 26 | 1014.7 |
| 20260902104603 | 92 | 67 | 12.0 | 21.0 | 0.00 | 0.00 | 0.00 | 26 | 1014.7 |
| 20260902104025 | 92 | 49 | 12.0 | 19.0 | 0.00 | 0.00 | 0.00 | 26 | 1014.6 |
| 20260902103527 | 92 | 108 | 11.0 | 24.0 | 0.00 | 0.00 | 0.00 | 26 | 1014.7 |
| 20260902103049 | 92 | 65 | 13.0 | 24.0 | 0.00 | 0.00 | 0.00 | 26 | 1014.8 |
| 20260902102527 | 91 | 13 | 13.0 | 27.0 | 0.00 | 0.00 | 0.00 | 26 | 1014.7 |
| 20260902102024 | 92 | 36 | 14.0 | 27.0 | 0.00 | 0.00 | 0.00 | 26 | 1014.8 |
| 20260902101546 | 92 | 360 | 14.0 | 26.0 | 0.00 | 0.00 | 0.00 | 26 | 1014.7 |
| 20260902101025 | 91 | 29 | 14.0 | 23.0 | 0.00 | 0.00 | 0.00 | 27 | 1014.7 |
| 20260902100524 | 91 | 355 | 13.0 | 24.0 | 0.00 | 0.00 | 0.00 | 27 | 1014.7 |
| 20260902100056 | 91 | 34 | 10.0 | 24.0 | 0.00 | 0.00 | 0.00 | 27 | 1014.7 |
| 20260902095526 | 91 | 360 | 13.0 | 23.0 | 0.00 | 0.00 | 0.00 | 27 | 1014.9 |
| 20260902095026 | 91 | 333 | 13.0 | 23.0 | 0.00 | 0.00 | 0.00 | 27 | 1015.0 |
| 20260902094543 | 91 | 5 | 11.0 | 19.0 | 0.00 | 0.00 | 0.00 | 28 | 1015.1 |
| 20260902094027 | 91 | 5 | 8.0 | 19.0 | 0.00 | 0.00 | 0.00 | 29 | 1015.1 |
| 20260902093527 | 91 | 59 | 8.0 | 19.0 | 0.00 | 0.00 | 0.00 | 28 | 1015.1 |
| 20260902093050 | 91 | 360 | 9.0 | 25.0 | 0.00 | 0.00 | 0.00 | 29 | 1015.2 |
| 20260902092523 | 91 | 360 | 10.0 | 25.0 | 0.00 | 0.00 | 0.00 | 29 | 1015.2 |
| 20260902092027 | 90 | 24 | 13.0 | 25.0 | 0.00 | 0.00 | 0.00 | 29 | 1015.1 |
| 20260902091542 | 90 | 53 | 11.0 | 20.0 | 0.00 | 0.00 | 0.00 | 29 | 1015.2 |
| 20260902091024 | 90 | 34 | 10.0 | 16.0 | 0.00 | 0.00 | 0.00 | 29 | 1015.1 |
| 20260902090530 | 90 | 327 | 5.0 | 17.0 | 0.00 | 0.00 | 0.00 | 29 | 1015.1 |
| 20260902090043 | 90 | 15 | 7.0 | 17.0 | 0.00 | 0.00 | 0.00 | 30 | 1015.1 |
| 20260902085526 | 90 | 10 | 6.0 | 18.0 | 0.00 | 0.00 | 0.00 | 29 | 1015.2 |
| 20260902085026 | 90 | 37 | 11.0 | 18.0 | 0.00 | 0.00 | 0.00 | 29 | 1015.1 |
| 20260902084544 | 90 | 35 | 8.0 | 16.0 | 0.00 | 0.00 | 0.00 | 30 | 1015.1 |
| 20260902084026 | 90 | 69 | 5.0 | 20.0 | 0.00 | 0.00 | 0.00 | 31 | 1015.1 |
| 20260902083524 | 90 | 9 | 10.0 | 20.0 | 0.00 | 0.00 | 0.00 | 30 | 1015.1 |
| 20260902083102 | 90 | 355 | 11.0 | 21.0 | 0.00 | 0.00 | 0.00 | 30 | 1015.1 |
| 20260902082524 | 89 | 22 | 7.0 | 21.0 | 0.00 | 0.00 | 0.00 | 31 | 1015.1 |
| 20260902082028 | 90 | 19 | 9.0 | 20.0 | 0.00 | 0.00 | 0.00 | 31 | 1015.1 |
| 20260902081607 | 89 | 36 | 8.0 | 20.0 | 0.00 | 0.00 | 0.00 | 31 | 1015.0 |
| 20260902081025 | 89 | 38 | 10.0 | 20.0 | 0.00 | 0.00 | 0.00 | 31 | 1014.9 |
| 20260902080524 | 89 | 5 | 11.0 | 18.0 | 0.00 | 0.00 | 0.00 | 31 | 1015.0 |
| 20260902080055 | 89 | 335 | 8.0 | 16.0 | 0.00 | 0.00 | 0.00 | 32 | 1014.9 |
| 20260902075525 | 89 | 24 | 10.0 | 17.0 | 0.00 | 0.00 | 0.00 | 32 | 1014.9 |
| 20260902075025 | 89 | 340 | 8.0 | 17.0 | 0.00 | 0.00 | 0.00 | 33 | 1014.9 |
| 20260902074545 | 89 | 23 | 11.0 | 17.0 | 0.00 | 0.00 | 0.00 | 33 | 1014.9 |
| 20260902074024 | 88 | 32 | 9.0 | 15.0 | 0.00 | 0.00 | 0.00 | 33 | 1014.9 |
| 20260902073526 | 88 | 21 | 9.0 | 20.0 | 0.00 | 0.00 | 0.00 | 33 | 1014.9 |
| 20260902073047 | 88 | 11 | 10.0 | 20.0 | 0.00 | 0.00 | 0.00 | 34 | 1014.8 |
| 20260902072526 | 88 | 28 | 10.0 | 19.0 | 0.00 | 0.00 | 0.00 | 34 | 1014.8 |
| 20260902072027 | 87 | 18 | 9.0 | 19.0 | 0.00 | 0.00 | 0.00 | 34 | 1014.7 |
| 20260902071553 | 87 | 350 | 11.0 | 20.0 | 0.00 | 0.00 | 0.00 | 34 | 1014.8 |
| 20260902071028 | 87 | 346 | 13.0 | 20.0 | 0.00 | 0.00 | 0.00 | 34 | 1014.7 |
| 20260902070525 | 87 | 32 | 11.0 | 19.0 | 0.00 | 0.00 | 0.00 | 35 | 1014.7 |
| 20260902070046 | 86 | 360 | 11.0 | 18.0 | 0.00 | 0.00 | 0.00 | 36 | 1014.6 |
| 20260902065527 | 86 | 5 | 11.0 | 18.0 | 0.00 | 0.00 | 0.00 | 37 | 1014.6 |
| 20260902065026 | 86 | 334 | 9.0 | 16.0 | 0.00 | 0.00 | 0.00 | 37 | 1014.6 |
| 20260902064542 | 86 | 31 | 9.0 | 17.0 | 0.00 | 0.00 | 0.00 | 38 | 1014.7 |
| 20260902064027 | 85 | 18 | 11.0 | 19.0 | 0.00 | 0.00 | 0.00 | 37 | 1014.7 |
| 20260902063524 | 85 | 11 | 11.0 | 19.0 | 0.00 | 0.00 | 0.00 | 37 | 1014.6 |
| 20260902063108 | 85 | 341 | 10.0 | 18.0 | 0.00 | 0.00 | 0.00 | 39 | 1014.6 |
| 20260902062526 | 85 | 15 | 11.0 | 18.0 | 0.00 | 0.00 | 0.00 | 39 | 1014.6 |
| 20260902062025 | 85 | 336 | 11.0 | 18.0 | 0.00 | 0.00 | 0.00 | 39 | 1014.6 |
| 20260902061550 | 84 | 40 | 10.0 | 18.0 | 0.00 | 0.00 | 0.00 | 40 | 1014.6 |
| 20260902061036 | 84 | 19 | 9.0 | 19.0 | 0.00 | 0.00 | 0.00 | 40 | 1014.6 |
| 20260902060525 | 84 | 15 | 13.0 | 19.0 | 0.00 | 0.00 | 0.00 | 39 | 1014.6 |
| 20260902060059 | 84 | 37 | 10.0 | 16.0 | 0.00 | 0.00 | 0.00 | 41 | 1014.7 |
| 20260902055524 | 84 | 33 | 9.0 | 16.0 | 0.00 | 0.00 | 0.00 | 41 | 1014.6 |
| 20260902055025 | 83 | 18 | 7.0 | 12.0 | 0.00 | 0.00 | 0.00 | 43 | 1014.7 |
| 20260902054547 | 83 | 348 | 6.0 | 11.0 | 0.00 | 0.00 | 0.00 | 43 | 1014.7 |
| 20260902054025 | 83 | 5 | 7.0 | 11.0 | 0.00 | 0.00 | 0.00 | 43 | 1014.6 |
| 20260902053527 | 83 | 344 | 4.0 | 10.0 | 0.00 | 0.00 | 0.00 | 44 | 1014.6 |
| 20260902053045 | 82 | 5 | 5.0 | 10.0 | 0.00 | 0.00 | 0.00 | 44 | 1014.7 |
| 20260902052525 | 82 | 350 | 5.0 | 9.0 | 0.00 | 0.00 | 0.00 | 44 | 1014.6 |
| 20260902052024 | 82 | 360 | 6.0 | 10.0 | 0.00 | 0.00 | 0.00 | 44 | 1014.7 |
| 20260902051544 | 82 | 340 | 5.0 | 10.0 | 0.00 | 0.00 | 0.00 | 45 | 1014.7 |
| 20260902051030 | 82 | 360 | 5.0 | 10.0 | 0.00 | 0.00 | 0.00 | 45 | 1014.7 |
| 20260902050524 | 82 | 9 | 6.0 | 12.0 | 0.00 | 0.00 | 0.00 | 45 | 1014.7 |
| 20260902050050 | 82 | 320 | 7.0 | 12.0 | 0.00 | 0.00 | 0.00 | 45 | 1014.7 |
| 20260902045525 | 82 | 329 | 7.0 | 12.0 | 0.00 | 0.00 | 0.00 | 45 | 1014.6 |
| 20260902045024 | 81 | 343 | 8.0 | 13.0 | 0.00 | 0.00 | 0.00 | 46 | 1014.6 |
| 20260902044547 | 81 | 322 | 7.0 | 13.0 | 0.00 | 0.00 | 0.00 | 46 | 1014.5 |
| 20260902044025 | 81 | 321 | 8.0 | 13.0 | 0.00 | 0.00 | 0.00 | 46 | 1014.5 |
| 20260902043524 | 81 | 346 | 8.0 | 14.0 | 0.00 | 0.00 | 0.00 | 46 | 1014.4 |
| 20260902043047 | 81 | 360 | 7.0 | 14.0 | 0.00 | 0.00 | 0.00 | 46 | 1014.5 |
| 20260902042526 | 81 | 360 | 8.0 | 16.0 | 0.00 | 0.00 | 0.00 | 46 | 1014.6 |
| 20260902042025 | 81 | 360 | 10.0 | 16.0 | 0.00 | 0.00 | 0.00 | 46 | 1014.5 |
| 20260902041542 | 81 | 360 | 10.0 | 16.0 | 0.00 | 0.00 | 0.00 | 46 | 1014.5 |
| 20260902041026 | 81 | 360 | 10.0 | 15.0 | 0.00 | 0.00 | 0.00 | 46 | 1014.3 |
| 20260902040526 | 81 | 360 | 7.0 | 13.0 | 0.00 | 0.00 | 0.00 | 45 | 1014.4 |
| 20260902040040 | 81 | 360 | 6.0 | 13.0 | 0.00 | 0.00 | 0.00 | 45 | 1014.3 |
| 20260902035524 | 81 | 360 | 6.0 | 13.0 | 0.00 | 0.00 | 0.00 | 45 | 1014.3 |
| 20260902035023 | 81 | 360 | 7.0 | 13.0 | 0.00 | 0.00 | 0.00 | 44 | 1014.3 |
| 20260902034545 | 81 | 360 | 9.0 | 13.0 | 0.00 | 0.00 | 0.00 | 43 | 1014.3 |
| 20260902034025 | 81 | 360 | 4.0 | 9.0 | 0.00 | 0.00 | 0.00 | 44 | 1014.2 |
| 20260902033524 | 81 | 0 | 1.0 | 14.0 | 0.00 | 0.00 | 0.00 | 44 | 1014.3 |
| 20260902033045 | 81 | 360 | 8.0 | 14.0 | 0.00 | 0.00 | 0.00 | 45 | 1014.2 |
| 20260902032525 | 81 | 360 | 7.0 | 12.0 | 0.00 | 0.00 | 0.00 | 44 | 1014.0 |
| 20260902032024 | 81 | 360 | 4.0 | 10.0 | 0.00 | 0.00 | 0.00 | 43 | 1014.0 |
| 20260902031546 | 81 | 360 | 1.0 | 4.0 | 0.00 | 0.00 | 0.00 | 44 | 1014.0 |
| 20260902031025 | 81 | 360 | 0.0 | 6.0 | 0.00 | 0.00 | 0.00 | 44 | 1014.0 |
| 20260902030527 | 81 | 360 | 1.0 | 6.0 | 0.00 | 0.00 | 0.00 | 44 | 1014.0 |
| 20260902030052 | 81 | 360 | 3.0 | 10.0 | 0.00 | 0.00 | 0.00 | 43 | 1013.9 |
| 20260902025526 | 82 | 360 | 3.0 | 10.0 | 0.00 | 0.00 | 0.00 | 42 | 1013.8 |
| 20260902025024 | 82 | 360 | 4.0 | 9.0 | 0.00 | 0.00 | 0.00 | 40 | 1013.9 |
| 20260902024546 | 81 | 360 | 3.0 | 12.0 | 0.00 | 0.00 | 0.00 | 41 | 1013.9 |
| 20260902024026 | 81 | 360 | 4.0 | 12.0 | 0.00 | 0.00 | 0.00 | 42 | 1013.8 |
| 20260902023524 | 81 | 360 | 4.0 | 12.0 | 0.00 | 0.00 | 0.00 | 43 | 1013.9 |
| 20260902023040 | 81 | 360 | 1.0 | 9.0 | 0.00 | 0.00 | 0.00 | 43 | 1013.9 |
| 20260902022526 | 81 | 0 | 3.0 | 14.0 | 0.00 | 0.00 | 0.00 | 42 | 1013.9 |
| 20260902022025 | 81 | 360 | 5.0 | 14.0 | 0.00 | 0.00 | 0.00 | 43 | 1013.8 |
| 20260902021545 | 80 | 360 | 2.0 | 6.0 | 0.00 | 0.00 | 0.00 | 44 | 1013.8 |
| 20260902021029 | 80 | 0 | 2.0 | 6.0 | 0.00 | 0.00 | 0.00 | 44 | 1013.9 |
| 20260902020530 | 80 | 360 | 4.0 | 6.0 | 0.00 | 0.00 | 0.00 | 45 | 1014.0 |
| 20260902020055 | 79 | 360 | 3.0 | 5.0 | 0.00 | 0.00 | 0.00 | 45 | 1013.9 |
| 20260902015523 | 80 | 360 | 1.0 | 5.0 | 0.00 | 0.00 | 0.00 | 45 | 1013.9 |
| 20260902015023 | 80 | 360 | 2.0 | 5.0 | 0.00 | 0.00 | 0.00 | 45 | 1014.0 |
| 20260902014553 | 80 | 360 | 2.0 | 5.0 | 0.00 | 0.00 | 0.00 | 45 | 1014.1 |
| 20260902014030 | 80 | 0 | 1.0 | 5.0 | 0.00 | 0.00 | 0.00 | 45 | 1014.1 |
| 20260902013528 | 80 | 360 | 1.0 | 5.0 | 0.00 | 0.00 | 0.00 | 46 | 1014.1 |
| 20260902013041 | 80 | 360 | 2.0 | 4.0 | 0.00 | 0.00 | 0.00 | 46 | 1014.1 |
| 20260902012527 | 79 | 360 | 0.0 | 3.0 | 0.00 | 0.00 | 0.00 | 47 | 1014.2 |
| 20260902012027 | 80 | 0 | 0.0 | 5.0 | 0.00 | 0.00 | 0.00 | 47 | 1014.1 |
| 20260902011545 | 80 | 360 | 2.0 | 5.0 | 0.00 | 0.00 | 0.00 | 46 | 1014.1 |
| 20260902011028 | 80 | 360 | 2.0 | 4.0 | 0.00 | 0.00 | 0.00 | 45 | 1014.1 |
| 20260902010527 | 80 | 360 | 1.0 | 4.0 | 0.00 | 0.00 | 0.00 | 46 | 1014.0 |
| 20260902010045 | 80 | 360 | 0.0 | 4.0 | 0.00 | 0.00 | 0.00 | 46 | 1014.0 |
| 20260902005531 | 80 | 0 | 1.0 | 4.0 | 0.00 | 0.00 | 0.00 | 46 | 1014.0 |
| 20260902005025 | 80 | 360 | 2.0 | 5.0 | 0.00 | 0.00 | 0.00 | 47 | 1013.9 |
| 20260902004554 | 80 | 360 | 2.0 | 6.0 | 0.00 | 0.00 | 0.00 | 47 | 1014.0 |
| 20260902004027 | 80 | 360 | 3.0 | 6.0 | 0.00 | 0.00 | 0.00 | 47 | 1014.0 |
| 20260902003530 | 79 | 360 | 3.0 | 6.0 | 0.00 | 0.00 | 0.00 | 47 | 1014.0 |
| 20260902003051 | 80 | 360 | 2.0 | 5.0 | 0.00 | 0.00 | 0.00 | 47 | 1014.0 |
| 20260902002526 | 79 | 360 | 1.0 | 3.0 | 0.00 | 0.00 | 0.00 | 47 | 1014.0 |
| 20260902002025 | 79 | 360 | 2.0 | 3.0 | 0.00 | 0.00 | 0.00 | 47 | 1013.9 |
| 20260902001546 | 80 | 360 | 1.0 | 3.0 | 0.00 | 0.00 | 0.00 | 48 | 1013.9 |
| 20260902001025 | 80 | 360 | 1.0 | 4.0 | 0.00 | 0.00 | 0.00 | 48 | 1014.0 |
| 20260902000526 | 80 | 360 | 1.0 | 4.0 | 0.00 | 0.00 | 0.00 | 47 | 1013.9 |
| 20260902000045 | 80 | 360 | 2.0 | 4.0 | 0.00 | 0.00 | 0.00 | 46 | 1014.0 |
| 20260901235530 | 81 | 360 | 2.0 | 6.0 | 0.00 | 0.00 | 0.00 | 47 | 1013.9 |
| 20260901235027 | 81 | 0 | 1.0 | 6.0 | 0.00 | 0.00 | 0.00 | 46 | 1014.0 |
| 20260901234559 | 81 | 360 | 1.0 | 6.0 | 0.00 | 0.00 | 0.00 | 46 | 1014.0 |
| 20260901234027 | 81 | 360 | 1.0 | 5.0 | 0.00 | 0.00 | 0.00 | 46 | 1014.0 |
| 20260901233528 | 81 | 360 | 2.0 | 5.0 | 0.00 | 0.00 | 0.00 | 48 | 1014.1 |
| 20260901233053 | 82 | 360 | 1.0 | 5.0 | 0.00 | 0.00 | 0.00 | 47 | 1014.1 |
| 20260901232532 | 82 | 0 | 1.0 | 4.0 | 0.00 | 0.00 | 0.00 | 48 | 1014.1 |
| 20260901232028 | 82 | 0 | 0.0 | 4.0 | 0.00 | 0.00 | 0.00 | 47 | 1014.1 |
| 20260901231545 | 82 | 0 | 0.0 | 4.0 | 0.00 | 0.00 | 0.00 | 47 | 1014.1 |
| 20260901231027 | 82 | 360 | 1.0 | 4.0 | 0.00 | 0.00 | 0.00 | 48 | 1014.1 |
| 20260901230527 | 82 | 360 | 1.0 | 6.0 | 0.00 | 0.00 | 0.00 | 48 | 1014.2 |
| 20260901230048 | 82 | 360 | 1.0 | 6.0 | 0.00 | 0.00 | 0.00 | 48 | 1014.1 |
| 20260901225533 | 82 | 360 | 2.0 | 8.0 | 0.00 | 0.00 | 0.00 | 48 | 1014.1 |
| 20260901225028 | 82 | 360 | 4.0 | 8.0 | 0.00 | 0.00 | 0.00 | 49 | 1014.1 |
| 20260901224544 | 82 | 360 | 2.0 | 9.0 | 0.00 | 0.00 | 0.00 | 49 | 1014.1 |
| 20260901224028 | 82 | 360 | 4.0 | 10.0 | 0.00 | 0.00 | 0.00 | 49 | 1014.1 |
| 20260901223552 | 82 | 360 | 5.0 | 10.0 | 0.00 | 0.00 | 0.00 | 49 | 1014.2 |
| 20260901223053 | 83 | 360 | 5.0 | 11.0 | 0.00 | 0.00 | 0.00 | 49 | 1014.1 |